Location: El Álamo
(40.2307°N, 3.9945°W)
Time: 04:43:57
(UTC+00:00)

Nadezhda 3 Rocket - Pass Details

Date: 19 May 2025
Orbit: 957 x 997 km, 82.9° (Epoch: 23 June)

Event Time Altitude Azimuth Distance (km) Brightness Sun altitude
Exits shadow 23:06:39 53° 234° (SW) 1,173 4.2 -27.9°
Maximum altitude 23:07:49 62° 279° (W) 1,076 4.2 -27.9°
Drops below altitude 10° 23:14:00 10° 1° (N) 2,726 7.2 -28.3°
Sets 23:16:34 0° 4° (N) 3,683 8.1 -28.4°
